Location: G�ndlingen
(48.0142°N, 7.6396°E)
Time: 02:19:40
(UTC+00:00)

Cosmos 2218 Rocket - Pass Details

Date: 05 July 2020
Orbit: 955 x 1007 km, 82.9° (Epoch: 04 August)

Event Time Altitude Azimuth Distance (km) Brightness Sun altitude
Exits shadow 22:50:53 30° 161° (SSE) 1,694 4.7 -18.7°
Maximum altitude 22:54:00 61° 93° (E) 1,121 4.2 -18.7°
Drops below altitude 10° 23:00:13 10° 15° (NNE) 2,754 7.4 -18.9°
Sets 23:02:45 0° 12° (NNE) 3,699 8.3 -19.0°
